Project,Study,Ord_Occ,Event_Num,Cast_ID,Date_Time_UTC,Date_Time_PST,Lat_Dec,Lon_Dec,Sta_ID,Line,Sta,Depth,Pressure,PrQ,Temp1,Temp1Q,Temp2,Temp2Q,TempAve,Salt1,Salt1Q,Salt1_Corr,Salt2,Salt2Q,Salt2_Corr,SaltAve_Corr,Ox1,Ox1Q,Ox1_CruiseCorr,Ox1_StaCorr,Ox2,Ox2Q,Ox2_CruiseCorr,Ox2_StaCorr,OxAve_StaCorr,Ox1uM,Ox1uM_CruiseCorr,Ox1uM_StaCorr,Ox2uM,Ox2uM_CruiseCorr,Ox2uM_StaCorr,OxAveuM_StaCorr,FluorV,FluorQ,EstChl_CruiseCorr,EstChl_StaCorr,ISUSV,ISUSQ,EstNO3_CruiseCorr,EstNO3_StaCorr,SigThetaTS1,SigThetaTS1Q,SigThetaTS2,SigThetaTS2Q,BAT,XMiss,TransQ,pH,pHQ,SPAR,SPARQ,PAR,PARQ,PoT1,PoT2,DynHt,SVA,OxSat1,OxSat2,BTL_Depth,BTL_Temp,SaltB,OxB,OxBuM,Chl-a,Phaeo,NO3,NO2,NH4,PO4,SIL
CalCOFI,2101RL,026,,2101_026u,22-Jan-2021 08:10:26,22-Jan-2021 00:10:26,32.91504,-118.93327,090.0 045.0,090.0,045.0,516.000,520.314,,6.1988,,6.1988,,6.1988,34.3139,,34.3197,34.3102,,34.3122,34.3160,0.2861,,0.2993,0.3382,0.2919,,0.3080,0.3411,0.3397,12.444,13.2866,14.8108,12.696,14.2903,14.9388,14.8748,0.0323,,,, ,, , ,26.9910,,26.9881,,0.6923,84.1070,,,,1.9295E+00,,1.0000E-12,,6.1527,6.1527,0.8667,113.183,4.142,4.226,,,,,,,,,,,,
CalCOFI,2101RL,026,,2101_026u,22-Jan-2021 08:10:35,22-Jan-2021 00:10:35,32.91504,-118.93324,090.0 045.0,090.0,045.0,515.000,519.304,,6.2018,,6.2025,,6.2022,34.3137,,34.3195,34.3101,,34.3121,34.3158,0.2899,,0.3033,0.3421,0.2947,,0.3110,0.3441,0.3431,12.606,13.4562,14.9788,12.814,14.4705,15.0640,15.0214,0.0323,,,, ,, , ,26.9905,,26.9875,,0.6932,84.0893,,,,2.0090E+00,,1.0000E-12,,6.1557,6.1564,0.8670,113.217,4.196,4.266,515,,34.3080,0.306,13.33,,,,,,,
CalCOFI,2101RL,026,,2101_026u,22-Jan-2021 08:10:44,22-Jan-2021 00:10:44,32.91504,-118.93322,090.0 045.0,090.0,045.0,514.000,518.294,,6.2054,,6.2061,,6.2058,34.3133,,34.3191,34.3098,,34.3118,34.3155,0.2934,,0.3070,0.3458,0.2955,,0.3119,0.3449,0.3454,12.759,13.6163,15.1376,12.850,14.6406,15.1022,15.1199,0.0320,,,, ,, , ,26.9897,,26.9868,,0.6932,84.0894,,,,2.5217E+00,,1.0000E-12,,6.1594,6.1602,0.8674,113.284,4.248,4.278,,,,,,,,,,,,
CalCOFI,2101RL,026,,2101_026u,22-Jan-2021 08:10:45,22-Jan-2021 00:10:45,32.91504,-118.93322,090.0 045.0,090.0,045.0,513.000,517.285,,6.2075,,6.2077,,6.2076,34.3133,,34.3191,34.3097,,34.3117,34.3154,0.2930,,0.3066,0.3454,0.2945,,0.3108,0.3439,0.3447,12.742,13.5985,15.1199,12.808,14.6217,15.0576,15.0888,0.0326,,,, ,, , ,26.9894,,26.9866,,0.6932,84.0893,,,,3.0491E+00,,1.0000E-12,,6.1616,6.1618,0.8674,113.300,4.242,4.264,,,,,,,,,,,,
CalCOFI,2101RL,026,,2101_026u,22-Jan-2021 08:10:47,22-Jan-2021 00:10:47,32.91504,-118.93320,090.0 045.0,090.0,045.0,512.000,516.275,,6.2137,,6.2125,,6.2131,34.3125,,34.3183,34.3092,,34.3112,34.3148,0.2925,,0.3060,0.3448,0.2941,,0.3104,0.3435,0.3442,12.722,13.5776,15.0992,12.791,14.5995,15.0396,15.0694,0.0321,,,, ,, , ,26.9880,,26.9855,,0.6934,84.0849,,,,2.3238E+00,,1.0000E-12,,6.1679,6.1667,0.8674,113.424,4.236,4.259,,,,,,,,,,,,
CalCOFI,2101RL,026,,2101_026u,22-Jan-2021 08:10:48,22-Jan-2021 00:10:48,32.91504,-118.93320,090.0 045.0,090.0,045.0,511.000,515.266,,6.2136,,6.2138,,6.2137,34.3126,,34.3184,34.3090,,34.3110,34.3147,0.2928,,0.3063,0.3451,0.2986,,0.3151,0.3482,0.3467,12.732,13.5881,15.1096,12.986,14.6106,15.2464,15.1780,0.0320,,,, ,, , ,26.9881,,26.9852,,0.6933,84.0869,,,,3.3174E+00,,1.0000E-12,,6.1678,6.1681,0.8674,113.404,4.240,4.324,,,,,,,,,,,,
CalCOFI,2101RL,026,,2101_026u,22-Jan-2021 08:10:49,22-Jan-2021 00:10:49,32.91504,-118.93320,090.0 045.0,090.0,045.0,510.000,514.256,,6.2153,,6.2161,,6.2157,34.3125,,34.3183,34.3090,,34.3110,34.3147,0.2963,,0.3100,0.3488,0.3019,,0.3186,0.3517,0.3503,12.886,13.7493,15.2693,13.127,14.7818,15.3959,15.3326,0.0326,,,, ,, , ,26.9878,,26.9849,,0.6929,84.0948,,,,2.2239E+00,,1.0000E-12,,6.1696,6.1704,0.8674,113.418,4.291,4.371,,,,,,,,,,,,
CalCOFI,2101RL,026,,2101_026u,22-Jan-2021 08:10:50,22-Jan-2021 00:10:50,32.91504,-118.93320,090.0 045.0,090.0,045.0,509.000,513.246,,6.2225,,6.2221,,6.2223,34.3119,,34.3177,34.3084,,34.3104,34.3141,0.2991,,0.3129,0.3517,0.2988,,0.3154,0.3484,0.3501,13.007,13.8759,15.3949,12.993,14.9164,15.2538,15.3244,0.0323,,,, ,, , ,26.9863,,26.9836,,0.6939,84.0740,,,,2.2618E+00,,1.0000E-12,,6.1769,6.1765,0.8674,113.548,4.332,4.327,,,,,,,,,,,,
CalCOFI,2101RL,026,,2101_026u,22-Jan-2021 08:10:52,22-Jan-2021 00:10:52,32.91504,-118.93320,090.0 045.0,090.0,045.0,508.000,512.237,,6.2289,,6.2288,,6.2289,34.3112,,34.3170,34.3080,,34.3100,34.3135,0.2988,,0.3126,0.3514,0.3017,,0.3184,0.3515,0.3515,12.992,13.8602,15.3793,13.121,14.8997,15.3896,15.3845,0.0324,,,, ,, , ,26.9849,,26.9825,,0.6932,84.0898,,,,3.2445E+00,,1.0000E-12,,6.1833,6.1833,0.8674,113.672,4.328,4.371,,,,,,,,,,,,
CalCOFI,2101RL,026,,2101_026u,22-Jan-2021 08:10:54,22-Jan-2021 00:10:54,32.91504,-118.93320,090.0 045.0,090.0,045.0,507.000,511.227,,6.2373,,6.2354,,6.2364,34.3106,,34.3164,34.3072,,34.3092,34.3128,0.3031,,0.3171,0.3558,0.3036,,0.3205,0.3535,0.3547,13.179,14.0560,15.5733,13.201,15.1077,15.4744,15.5239,0.0318,,,, ,, , ,26.9834,,26.9809,,0.6935,84.0822,,,,1.8800E+00,,1.0000E-12,,6.1918,6.1899,0.8674,113.815,4.391,4.398,,,,,,,,,,,,
CalCOFI,2101RL,026,,2101_026u,22-Jan-2021 08:10:55,22-Jan-2021 00:10:55,32.91504,-118.93320,090.0 045.0,090.0,045.0,506.000,510.218,,6.2451,,6.2428,,6.2440,34.3098,,34.3156,34.3066,,34.3086,34.3121,0.2997,,0.3136,0.3523,0.3088,,0.3260,0.3590,0.3557,13.034,13.9042,15.4229,13.428,14.9464,15.7152,15.5691,0.0319,,,, ,, , ,26.9817,,26.9795,,0.6932,84.0894,,,,2.4276E+00,,1.0000E-12,,6.1997,6.1974,0.8674,113.965,4.343,4.474,,,,,,,,,,,,
CalCOFI,2101RL,026,,2101_026u,22-Jan-2021 08:10:56,22-Jan-2021 00:10:56,32.91502,-118.93318,090.0 045.0,090.0,045.0,505.000,509.208,,6.2486,,6.2463,,6.2475,34.3093,,34.3151,34.3061,,34.3081,34.3116,0.3035,,0.3175,0.3562,0.3057,,0.3227,0.3557,0.3560,13.200,14.0780,15.5951,13.295,15.1310,15.5741,15.5846,0.0317,,,, ,, , ,26.9809,,26.9786,,0.6932,84.0893,,,,2.8597E+00,,1.0000E-12,,6.2033,6.2009,0.8674,114.031,4.399,4.430,,,,,,,,,,,,
CalCOFI,2101RL,026,,2101_026u,22-Jan-2021 08:10:57,22-Jan-2021 00:10:57,32.91502,-118.93318,090.0 045.0,090.0,045.0,504.000,508.199,,6.2510,,6.2486,,6.2498,34.3087,,34.3145,34.3058,,34.3078,34.3112,0.3082,,0.3225,0.3611,0.3039,,0.3208,0.3538,0.3575,13.401,14.2884,15.8036,13.215,15.3545,15.4893,15.6465,0.0329,,,, ,, , ,26.9801,,26.9781,,0.6933,84.0882,,,,2.7260E+00,,1.0000E-12,,6.2058,6.2034,0.8674,114.097,4.466,4.404,,,,,,,,,,,,
CalCOFI,2101RL,026,,2101_026u,22-Jan-2021 08:10:58,22-Jan-2021 00:10:58,32.91502,-118.93318,090.0 045.0,090.0,045.0,503.000,507.189,,6.2527,,6.2530,,6.2529,34.3084,,34.3142,34.3051,,34.3071,34.3107,0.3044,,0.3185,0.3572,0.3038,,0.3207,0.3537,0.3555,13.237,14.1167,15.6335,13.212,15.1722,15.4861,15.5598,0.0327,,,, ,, , ,26.9797,,26.9770,,0.6932,84.0893,,,,2.7711E+00,,1.0000E-12,,6.2076,6.2079,0.8674,114.126,4.412,4.403,,,,,,,,,,,,
CalCOFI,2101RL,026,,2101_026u,22-Jan-2021 08:10:59,22-Jan-2021 00:10:59,32.91502,-118.93318,090.0 045.0,090.0,045.0,502.000,506.179,,6.2551,,6.2555,,6.2553,34.3083,,34.3141,34.3048,,34.3068,34.3105,0.3032,,0.3172,0.3559,0.3040,,0.3209,0.3539,0.3549,13.185,14.0623,15.5795,13.219,15.1143,15.4935,15.5365,0.0326,,,, ,, , ,26.9793,,26.9764,,0.6931,84.0905,,,,1.8445E+00,,1.0000E-12,,6.2100,6.2104,0.8674,114.151,4.395,4.406,,,,,,,,,,,,
CalCOFI,2101RL,026,,2101_026u,22-Jan-2021 08:11:00,22-Jan-2021 00:11:00,32.91502,-118.93316,090.0 045.0,090.0,045.0,501.000,505.170,,6.2572,,6.2582,,6.2577,34.3082,,34.3140,34.3044,,34.3064,34.3102,0.3070,,0.3212,0.3599,0.3071,,0.3242,0.3572,0.3586,13.351,14.2360,15.7517,13.354,15.2989,15.6367,15.6942,0.0328,,,, ,, , ,26.9789,,26.9758,,0.6932,84.0893,,,,2.3926E+00,,1.0000E-12,,6.2122,6.2132,0.8674,114.175,4.450,4.451,,,,,,,,,,,,
CalCOFI,2101RL,026,,2101_026u,22-Jan-2021 08:11:01,22-Jan-2021 00:11:01,32.91502,-118.93316,090.0 045.0,090.0,045.0,500.000,504.160,,6.2636,,6.2598,,6.2617,34.3076,,34.3134,34.3047,,34.3067,34.3101,0.3123,,0.3268,0.3654,0.3119,,0.3293,0.3623,0.3639,13.583,14.4789,15.9924,13.562,15.5569,15.8573,15.9249,0.0314,,,, ,, , ,26.9776,,26.9758,,0.6938,84.0769,,,,1.8649E+00,,1.0000E-12,,6.2187,6.2149,0.8674,114.289,4.528,4.521,,,,,,,,,,,,
CalCOFI,2101RL,026,,2101_026u,22-Jan-2021 08:11:02,22-Jan-2021 00:11:02,32.91502,-118.93316,090.0 045.0,090.0,045.0,499.000,503.151,,6.2676,,6.2631,,6.2654,34.3073,,34.3131,34.3045,,34.3065,34.3098,0.3075,,0.3217,0.3604,0.3086,,0.3258,0.3588,0.3596,13.372,14.2580,15.7735,13.421,15.3223,15.7077,15.7406,0.0317,,,, ,, , ,26.9768,,26.9752,,0.6928,84.0961,,,,2.7449E+00,,1.0000E-12,,6.2228,6.2183,0.8674,114.351,4.458,4.474,,,,,,,,,,,,
CalCOFI,2101RL,026,,2101_026u,22-Jan-2021 08:11:03,22-Jan-2021 00:11:03,32.91500,-118.93316,090.0 045.0,090.0,045.0,498.000,502.141,,6.2722,,6.2640,,6.2681,34.3070,,34.3128,34.3036,,34.3056,34.3092,0.3084,,0.3227,0.3613,0.3075,,0.3246,0.3577,0.3595,13.413,14.3009,15.8161,13.374,15.3679,15.6579,15.7370,0.0320,,,, ,, , ,26.9760,,26.9743,,0.6932,84.0896,,,,2.8486E+00,,1.0000E-12,,6.2274,6.2193,0.8674,114.422,4.472,4.458,,,,,,,,,,,,
CalCOFI,2101RL,026,,2101_026u,22-Jan-2021 08:11:05,22-Jan-2021 00:11:05,32.91500,-118.93316,090.0 045.0,090.0,045.0,497.000,501.132,,6.2807,,6.2792,,6.2800,34.3062,,34.3120,34.3031,,34.3051,34.3086,0.3170,,0.3317,0.3702,0.3192,,0.3370,0.3701,0.3702,13.786,14.6914,16.2030,13.880,15.7827,16.1945,16.1988,0.0320,,,, ,, , ,26.9743,,26.9720,,0.6924,84.1041,,,,3.3702E+00,,1.0000E-12,,6.2360,6.2345,0.8674,114.578,4.597,4.629,,,,,,,,,,,,
CalCOFI,2101RL,026,,2101_026u,22-Jan-2021 08:11:07,22-Jan-2021 00:11:07,32.91500,-118.93316,090.0 045.0,090.0,045.0,496.000,500.122,,6.3080,,6.3021,,6.3051,34.3043,,34.3101,34.3015,,34.3035,34.3068,0.3225,,0.3374,0.3759,0.3180,,0.3357,0.3688,0.3724,14.027,14.9437,16.4530,13.831,16.0507,16.1426,16.2978,0.0318,,,, ,, , ,26.9692,,26.9677,,0.6932,84.0888,,,,1.7980E+00,,1.0000E-12,,6.2633,6.2574,0.8674,115.074,4.681,4.614,,,,,,,,,,,,
CalCOFI,2101RL,026,,2101_026u,22-Jan-2021 08:11:08,22-Jan-2021 00:11:08,32.91500,-118.93316,090.0 045.0,090.0,045.0,495.000,499.113,,6.3222,,6.3201,,6.3212,34.3032,,34.3090,34.2998,,34.3018,34.3054,0.3245,,0.3395,0.3780,0.3184,,0.3362,0.3692,0.3736,14.114,15.0347,16.5433,13.846,16.1474,16.1585,16.3509,0.0326,,,, ,, , ,26.9665,,26.9641,,0.6932,84.0893,,,,2.5974E+00,,1.0000E-12,,6.2775,6.2754,0.8674,115.333,4.711,4.621,,,,,,,,,,,,
CalCOFI,2101RL,026,,2101_026u,22-Jan-2021 08:11:08,22-Jan-2021 00:11:08,32.91500,-118.93316,090.0 045.0,090.0,045.0,494.000,498.103,,6.3357,,6.3264,,6.3311,34.3023,,34.3081,34.2995,,34.3015,34.3048,0.3260,,0.3411,0.3796,0.3242,,0.3423,0.3754,0.3775,14.176,15.0996,16.6076,14.100,16.2163,16.4279,16.5178,0.0317,,,, ,, , ,26.9640,,26.9630,,0.6935,84.0834,,,,3.1371E+00,,1.0000E-12,,6.2911,6.2818,0.8674,115.567,4.733,4.707,,,,,,,,,,,,
CalCOFI,2101RL,026,,2101_026u,22-Jan-2021 08:11:09,22-Jan-2021 00:11:09,32.91499,-118.93315,090.0 045.0,090.0,045.0,493.000,497.094,,6.3468,,6.3394,,6.3431,34.3018,,34.3076,34.2987,,34.3007,34.3042,0.3245,,0.3395,0.3780,0.3282,,0.3466,0.3796,0.3788,14.113,15.0337,16.5423,14.274,16.1463,16.6124,16.5774,0.0314,,,, ,, , ,26.9622,,26.9607,,0.6941,84.0694,,,,2.5628E+00,,1.0000E-12,,6.3022,6.2948,0.8674,115.733,4.714,4.766,,,,,,,,,,,,
CalCOFI,2101RL,026,,2101_026u,22-Jan-2021 08:11:10,22-Jan-2021 00:11:10,32.91498,-118.93314,090.0 045.0,090.0,045.0,492.000,496.084,,6.3550,,6.3520,,6.3535,34.3012,,34.3070,34.2978,,34.2998,34.3034,0.3259,,0.3410,0.3795,0.3320,,0.3506,0.3836,0.3816,14.171,15.0944,16.6024,14.438,16.2108,16.7863,16.6944,0.0317,,,, ,, , ,26.9606,,26.9583,,0.6940,84.0719,,,,1.8461E+00,,1.0000E-12,,6.3105,6.3075,0.8674,115.878,4.734,4.822,,,,,,,,,,,,
CalCOFI,2101RL,026,,2101_026u,22-Jan-2021 08:11:11,22-Jan-2021 00:11:11,32.91498,-118.93314,090.0 045.0,090.0,045.0,491.000,495.075,,6.3589,,6.3601,,6.3595,34.3011,,34.3069,34.2974,,34.2994,34.3032,0.3335,,0.3489,0.3873,0.3263,,0.3446,0.3776,0.3825,14.504,15.4430,16.9479,14.190,16.5811,16.5233,16.7356,0.0318,,,, ,, , ,26.9600,,26.9569,,0.6934,84.0848,,,,2.9916E+00,,1.0000E-12,,6.3145,6.3157,0.8674,115.923,4.845,4.740,,,,,,,,,,,,
CalCOFI,2101RL,026,,2101_026u,22-Jan-2021 08:11:12,22-Jan-2021 00:11:12,32.91498,-118.93314,090.0 045.0,090.0,045.0,490.000,494.065,,6.3668,,6.3668,,6.3668,34.3003,,34.3061,34.2969,,34.2989,34.3025,0.3337,,0.3492,0.3875,0.3308,,0.3493,0.3823,0.3849,14.511,15.4503,16.9552,14.387,16.5889,16.7322,16.8437,0.0320,,,, ,, , ,26.9583,,26.9557,,0.6942,84.0684,,,,1.8544E+00,,1.0000E-12,,6.3225,6.3225,0.8674,116.075,4.849,4.807,,,,,,,,,,,,
CalCOFI,2101RL,026,,2101_026u,22-Jan-2021 08:11:13,22-Jan-2021 00:11:13,32.91498,-118.93314,090.0 045.0,090.0,045.0,489.000,493.056,,6.3694,,6.3719,,6.3707,34.2999,,34.3057,34.2965,,34.2985,34.3021,0.3299,,0.3452,0.3836,0.3350,,0.3538,0.3868,0.3852,14.348,15.2797,16.7861,14.567,16.4076,16.9232,16.8547,0.0313,,,, ,, , ,26.9577,,26.9547,,0.6943,84.0657,,,,1.8474E+00,,1.0000E-12,,6.3251,6.3276,0.8674,116.122,4.794,4.868,,,,,,,,,,,,
CalCOFI,2101RL,026,,2101_026u,22-Jan-2021 08:11:13,22-Jan-2021 00:11:13,32.91498,-118.93314,090.0 045.0,090.0,045.0,488.000,492.046,,6.3755,,6.3754,,6.3755,34.2996,,34.3054,34.2963,,34.2983,34.3019,0.3280,,0.3432,0.3816,0.3304,,0.3489,0.3819,0.3818,14.265,15.1928,16.7000,14.369,16.3153,16.7132,16.7066,0.0324,,,, ,, , ,26.9567,,26.9541,,0.6943,84.0657,,,,2.6596E+00,,1.0000E-12,,6.3313,6.3312,0.8674,116.214,4.767,4.802,,,,,,,,,,,,
CalCOFI,2101RL,026,,2101_026u,22-Jan-2021 08:11:14,22-Jan-2021 00:11:14,32.91498,-118.93312,090.0 045.0,090.0,045.0,487.000,491.037,,6.3778,,6.3757,,6.3768,34.2995,,34.3053,34.2962,,34.2982,34.3018,0.3296,,0.3449,0.3833,0.3309,,0.3494,0.3825,0.3829,14.332,15.2629,16.7695,14.390,16.3898,16.7354,16.7525,0.0324,,,, ,, , ,26.9562,,26.9539,,0.6934,84.0843,,,,1.8615E+00,,1.0000E-12,,6.3337,6.3316,0.8674,116.240,4.790,4.809,,,,,,,,,,,,
CalCOFI,2101RL,026,,2101_026u,22-Jan-2021 08:11:15,22-Jan-2021 00:11:15,32.91498,-118.93312,090.0 045.0,090.0,045.0,486.000,490.027,,6.3779,,6.3783,,6.3781,34.2995,,34.3053,34.2958,,34.2978,34.3016,0.3293,,0.3445,0.3830,0.3284,,0.3468,0.3798,0.3814,14.322,15.2525,16.7591,14.282,16.3787,16.6209,16.6900,0.0325,,,, ,, , ,26.9562,,26.9533,,0.6947,84.0578,,,,1.8474E+00,,1.0000E-12,,6.3338,6.3343,0.8674,116.225,4.787,4.773,,,,,,,,,,,,
CalCOFI,2101RL,026,,2101_026u,22-Jan-2021 08:11:17,22-Jan-2021 00:11:17,32.91498,-118.93312,090.0 045.0,090.0,045.0,485.000,489.018,,6.3758,,6.3787,,6.3773,34.2992,,34.3050,34.2955,,34.2975,34.3013,0.3330,,0.3484,0.3868,0.3319,,0.3505,0.3835,0.3852,14.482,15.4200,16.9251,14.436,16.5566,16.7842,16.8547,0.0319,,,, ,, , ,26.9563,,26.9530,,0.6940,84.0722,,,,2.3098E+00,,1.0000E-12,,6.3319,6.3347,0.8674,116.208,4.840,4.825,,,,,,,,,,,,
CalCOFI,2101RL,026,,2101_026u,22-Jan-2021 08:11:18,22-Jan-2021 00:11:18,32.91498,-118.93312,090.0 045.0,090.0,045.0,484.000,488.008,,6.3759,,6.3770,,6.3765,34.2992,,34.3050,34.2955,,34.2975,34.3013,0.3330,,0.3484,0.3868,0.3325,,0.3511,0.3841,0.3855,14.481,15.4189,16.9240,14.458,16.5555,16.8075,16.8658,0.0324,,,, ,, , ,26.9562,,26.9532,,0.6943,84.0655,,,,2.2948E+00,,1.0000E-12,,6.3320,6.3332,0.8674,116.197,4.840,4.832,,,,,,,,,,,,
CalCOFI,2101RL,026,,2101_026u,22-Jan-2021 08:11:20,22-Jan-2021 00:11:20,32.91496,-118.93312,090.0 045.0,090.0,045.0,483.000,486.999,,6.3838,,6.3824,,6.3831,34.2984,,34.3042,34.2951,,34.2971,34.3007,0.3349,,0.3504,0.3888,0.3353,,0.3541,0.3871,0.3880,14.566,15.5079,17.0122,14.581,16.6500,16.9380,16.9751,0.0317,,,, ,, , ,26.9546,,26.9521,,0.6943,84.0657,,,,1.8445E+00,,1.0000E-12,,6.3401,6.3386,0.8674,116.347,4.869,4.874,,,,,,,,,,,,
CalCOFI,2101RL,026,,2101_026u,22-Jan-2021 08:11:21,22-Jan-2021 00:11:21,32.91496,-118.93312,090.0 045.0,090.0,045.0,482.000,485.989,,6.3886,,6.3849,,6.3868,34.2979,,34.3037,34.2948,,34.2968,34.3003,0.3395,,0.3552,0.3936,0.3348,,0.3536,0.3866,0.3901,14.766,15.7172,17.2197,14.562,16.8724,16.9178,17.0688,0.0320,,,, ,, , ,26.9536,,26.9516,,0.6937,84.0782,,,,2.0438E+00,,1.0000E-12,,6.3449,6.3412,0.8674,116.431,4.936,4.868,,,,,,,,,,,,
CalCOFI,2101RL,026,,2101_026u,22-Jan-2021 08:11:22,22-Jan-2021 00:11:22,32.91496,-118.93312,090.0 045.0,090.0,045.0,481.000,484.980,,6.3935,,6.3874,,6.3905,34.2971,,34.3029,34.2943,,34.2963,34.2996,0.3360,,0.3516,0.3899,0.3328,,0.3515,0.3845,0.3872,14.610,15.5539,17.0579,14.473,16.6990,16.8235,16.9407,0.0319,,,, ,, , ,26.9523,,26.9508,,0.6940,84.0718,,,,1.8462E+00,,1.0000E-12,,6.3499,6.3438,0.8674,116.544,4.884,4.838,,,,,,,,,,,,
CalCOFI,2101RL,026,,2101_026u,22-Jan-2021 08:11:23,22-Jan-2021 00:11:23,32.91496,-118.93314,090.0 045.0,090.0,045.0,480.000,483.970,,6.3965,,6.3911,,6.3938,34.2966,,34.3024,34.2939,,34.2959,34.2992,0.3431,,0.3590,0.3973,0.3419,,0.3611,0.3941,0.3957,14.922,15.8805,17.3816,14.870,17.0459,17.2445,17.3131,0.0317,,,, ,, , ,26.9515,,26.9500,,0.6934,84.0848,,,,2.2994E+00,,1.0000E-12,,6.3529,6.3476,0.8674,116.607,4.989,4.971,,,,,,,,,,,,
CalCOFI,2101RL,026,,2101_026u,22-Jan-2021 08:11:24,22-Jan-2021 00:11:24,32.91496,-118.93314,090.0 045.0,090.0,045.0,479.000,482.961,,6.4028,,6.4001,,6.4015,34.2955,,34.3013,34.2924,,34.2944,34.2979,0.3463,,0.3623,0.4006,0.3468,,0.3663,0.3993,0.4000,15.061,16.0261,17.5258,15.082,17.2005,17.4693,17.4976,0.0330,,,, ,, , ,26.9498,,26.9477,,0.6943,84.0655,,,,2.0393E+00,,1.0000E-12,,6.3593,6.3566,0.8674,116.758,5.036,5.043,,,,,,,,,,,,
CalCOFI,2101RL,026,,2101_026u,22-Jan-2021 08:11:25,22-Jan-2021 00:11:25,32.91496,-118.93314,090.0 045.0,090.0,045.0,478.000,481.952,,6.4110,,6.4119,,6.4115,34.2947,,34.3005,34.2912,,34.2932,34.2969,0.3498,,0.3660,0.4042,0.3472,,0.3668,0.3997,0.4020,15.214,16.1862,17.6845,15.101,17.3706,17.4895,17.5870,0.0324,,,, ,, , ,26.9480,,26.9451,,0.6933,84.0882,,,,2.5046E+00,,1.0000E-12,,6.3676,6.3685,0.8674,116.920,5.088,5.051,,,,,,,,,,,,
CalCOFI,2101RL,026,,2101_026u,22-Jan-2021 08:11:25,22-Jan-2021 00:11:25,32.91496,-118.93314,090.0 045.0,090.0,045.0,477.000,480.942,,6.4224,,6.4244,,6.4234,34.2933,,34.2991,34.2898,,34.2918,34.2955,0.3481,,0.3642,0.4025,0.3537,,0.3737,0.4066,0.4046,15.137,16.1056,17.6046,15.381,17.2850,17.7865,17.6956,0.0316,,,, ,, , ,26.9454,,26.9424,,0.6932,84.0893,,,,3.5853E+00,,1.0000E-12,,6.3791,6.3811,0.8674,117.159,5.064,5.146,,,,,,,,,,,,
CalCOFI,2101RL,026,,2101_026u,22-Jan-2021 08:11:26,22-Jan-2021 00:11:26,32.91496,-118.93312,090.0 045.0,090.0,045.0,476.000,479.933,,6.4288,,6.4284,,6.4286,34.2932,,34.2990,34.2898,,34.2918,34.2954,0.3493,,0.3655,0.4037,0.3469,,0.3664,0.3994,0.4016,15.190,16.1611,17.6596,15.084,17.3439,17.4715,17.5656,0.0330,,,, ,, , ,26.9445,,26.9419,,0.6935,84.0834,,,,1.8483E+00,,1.0000E-12,,6.3856,6.3851,0.8674,117.241,5.082,5.047,,,,,,,,,,,,
CalCOFI,2101RL,026,,2101_026u,22-Jan-2021 08:11:27,22-Jan-2021 00:11:27,32.91496,-118.93312,090.0 045.0,090.0,045.0,475.000,478.923,,6.4348,,6.4358,,6.4353,34.2928,,34.2986,34.2893,,34.2913,34.2950,0.3486,,0.3647,0.4030,0.3426,,0.3619,0.3949,0.3990,15.159,16.1286,17.6274,14.901,17.3095,17.2774,17.4524,0.0325,,,, ,, , ,26.9434,,26.9405,,0.6938,84.0770,,,,2.3760E+00,,1.0000E-12,,6.3916,6.3926,0.8674,117.337,5.073,4.986,,,,,,,,,,,,
CalCOFI,2101RL,026,,2101_026u,22-Jan-2021 08:11:28,22-Jan-2021 00:11:28,32.91496,-118.93312,090.0 045.0,090.0,045.0,474.000,477.914,,6.4389,,6.4396,,6.4393,34.2928,,34.2986,34.2892,,34.2912,34.2949,0.3478,,0.3639,0.4022,0.3427,,0.3620,0.3950,0.3986,15.126,16.0941,17.5932,14.903,17.2728,17.2795,17.4364,0.0325,,,, ,, , ,26.9428,,26.9399,,0.6928,84.0976,,,,1.8653E+00,,1.0000E-12,,6.3958,6.3965,0.8674,117.378,5.062,4.988,,,,,,,,,,,,
CalCOFI,2101RL,026,,2101_026u,22-Jan-2021 08:11:29,22-Jan-2021 00:11:29,32.91496,-118.93312,090.0 045.0,090.0,045.0,473.000,476.904,,6.4422,,6.4400,,6.4411,34.2921,,34.2979,34.2892,,34.2912,34.2946,0.3532,,0.3696,0.4078,0.3530,,0.3729,0.4059,0.4069,15.362,16.3411,17.8380,15.352,17.5352,17.7557,17.7969,0.0324,,,, ,, , ,26.9419,,26.9398,,0.6934,84.0853,,,,1.8474E+00,,1.0000E-12,,6.3992,6.3970,0.8674,117.456,5.142,5.138,,,,,,,,,,,,
CalCOFI,2101RL,026,,2101_026u,22-Jan-2021 08:11:30,22-Jan-2021 00:11:30,32.91494,-118.93314,090.0 045.0,090.0,045.0,472.000,475.895,,6.4380,,6.4358,,6.4369,34.2923,,34.2981,34.2892,,34.2912,34.2947,0.3537,,0.3701,0.4083,0.3512,,0.3710,0.4040,0.4062,15.382,16.3621,17.8588,15.274,17.5574,17.6730,17.7659,0.0332,,,, ,, , ,26.9425,,26.9404,,0.6931,84.0919,,,,2.1757E+00,,1.0000E-12,,6.3951,6.3929,0.8674,117.376,5.148,5.111,,,,,,,,,,,,
CalCOFI,2101RL,026,,2101_026u,22-Jan-2021 08:11:31,22-Jan-2021 00:11:31,32.91494,-118.93314,090.0 045.0,090.0,045.0,471.000,474.886,,6.4538,,6.4511,,6.4525,34.2913,,34.2971,34.2883,,34.2903,34.2937,0.3594,,0.3760,0.4142,0.3498,,0.3695,0.4025,0.4084,15.632,16.6238,18.1181,15.210,17.8354,17.6051,17.8616,0.0326,,,, ,, , ,26.9397,,26.9377,,0.6930,84.0928,,,,2.3943E+00,,1.0000E-12,,6.4109,6.4082,0.8674,117.643,5.233,5.092,,,,,,,,,,,,
CalCOFI,2101RL,026,,2101_026u,22-Jan-2021 08:11:32,22-Jan-2021 00:11:32,32.91494,-118.93314,090.0 045.0,090.0,045.0,470.000,473.876,,6.4689,,6.4676,,6.4683,34.2904,,34.2962,34.2866,,34.2886,34.2924,0.3598,,0.3765,0.4146,0.3595,,0.3798,0.4128,0.4137,15.646,16.6384,18.1327,15.635,17.8510,18.0558,18.0943,0.0317,,,, ,, , ,26.9370,,26.9342,,0.6930,84.0927,,,,1.8585E+00,,1.0000E-12,,6.4261,6.4248,0.8674,117.900,5.240,5.236,,,,,,,,,,,,
CalCOFI,2101RL,026,,2101_026u,22-Jan-2021 08:11:34,22-Jan-2021 00:11:34,32.91494,-118.93314,090.0 045.0,090.0,045.0,469.000,472.867,,6.4761,,6.4699,,6.4730,34.2895,,34.2953,34.2864,,34.2884,34.2919,0.3612,,0.3779,0.4161,0.3546,,0.3746,0.4076,0.4119,15.709,16.7044,18.1980,15.422,17.9211,17.8299,18.0140,0.0326,,,, ,, , ,26.9353,,26.9337,,0.6928,84.0972,,,,1.8831E+00,,1.0000E-12,,6.4333,6.4272,0.8674,118.050,5.262,5.165,,,,,,,,,,,,
CalCOFI,2101RL,026,,2101_026u,22-Jan-2021 08:11:36,22-Jan-2021 00:11:36,32.91494,-118.93314,090.0 045.0,090.0,045.0,468.000,471.857,,6.4854,,6.4860,,6.4857,34.2886,,34.2944,34.2850,,34.2870,34.2907,0.3645,,0.3814,0.4195,0.3665,,0.3873,0.4202,0.4199,15.853,16.8551,18.3474,15.939,18.0812,18.3783,18.3629,0.0319,,,, ,, , ,26.9334,,26.9305,,0.6932,84.0887,,,,2.6170E+00,,1.0000E-12,,6.4426,6.4433,0.8674,118.230,5.311,5.340,,,,,,,,,,,,
CalCOFI,2101RL,026,,2101_026u,22-Jan-2021 08:11:37,22-Jan-2021 00:11:37,32.91494,-118.93314,090.0 045.0,090.0,045.0,467.000,470.848,,6.4860,,6.4796,,6.4828,34.2887,,34.2945,34.2856,,34.2876,34.2911,0.3739,,0.3912,0.4292,0.3624,,0.3829,0.4158,0.4225,16.261,17.2822,18.7707,15.760,18.5349,18.1884,18.4796,0.0322,,,, ,, , ,26.9334,,26.9318,,0.6928,84.0970,,,,2.2255E+00,,1.0000E-12,,6.4434,6.4370,0.8674,118.214,5.448,5.279,,,,,,,,,,,,
CalCOFI,2101RL,026,,2101_026u,22-Jan-2021 08:11:37,22-Jan-2021 00:11:37,32.91494,-118.93314,090.0 045.0,090.0,045.0,466.000,469.839,,6.5001,,6.4967,,6.4984,34.2871,,34.2929,34.2838,,34.2858,34.2894,0.3758,,0.3932,0.4312,0.3723,,0.3934,0.4263,0.4288,16.344,17.3691,18.8568,16.189,18.6272,18.6434,18.7501,0.0324,,,, ,, , ,26.9303,,26.9281,,0.6932,84.0891,,,,1.9553E+00,,1.0000E-12,,6.4575,6.4541,0.8674,118.508,5.478,5.425,,,,,,,,,,,,
CalCOFI,2101RL,026,,2101_026u,22-Jan-2021 08:11:38,22-Jan-2021 00:11:38,32.91494,-118.93314,090.0 045.0,090.0,045.0,465.000,468.829,,6.5082,,6.5066,,6.5074,34.2861,,34.2919,34.2829,,34.2849,34.2884,0.3762,,0.3936,0.4316,0.3789,,0.4004,0.4333,0.4325,16.362,17.3879,18.8755,16.479,18.6472,18.9510,18.9133,0.0326,,,, ,, , ,26.9284,,26.9261,,0.6932,84.0893,,,,2.1116E+00,,1.0000E-12,,6.4657,6.4641,0.8674,118.681,5.484,5.523,,,,,,,,,,,,
CalCOFI,2101RL,026,,2101_026u,22-Jan-2021 08:11:39,22-Jan-2021 00:11:39,32.91494,-118.93314,090.0 045.0,090.0,045.0,464.000,467.820,,6.5146,,6.5153,,6.5150,34.2853,,34.2911,34.2818,,34.2838,34.2875,0.3759,,0.3933,0.4313,0.3702,,0.3912,0.4241,0.4277,16.345,17.3701,18.8578,16.102,18.6283,18.5511,18.7045,0.0319,,,, ,, , ,26.9269,,26.9241,,0.6932,84.0893,,,,2.3731E+00,,1.0000E-12,,6.4722,6.4728,0.8674,118.814,5.480,5.398,,,,,,,,,,,,